[[{"header":{"parameterUnit":"m.s-1","parameterCategory":1,"la1":30.2991,"la2":30.254,"lo1":-89.0895,"lo2":-89.0444,"dy":0.0017,"dx":0.0017,"nx":28,"ny":28,"refTime":"2023-09-02T03:00:00:Z","depth":0,"parameterNumber":2,"parameterNumberName":"U-component_of_WINDS"},"data":[0,0,0,0,0,0,0,0,0,0,0,0,0,0,0,0,0,0,0,0,0,0,0,0,0,0,0,0,0,0,0,0,0,0,0,0,0,0,0,0,0,0,0,0,0,0,0,0,0,0,0,0,0,0,0,0,0,0,-4.5411,-4.5413,0,-4.5608,-4.561,-4.5613,-4.565,-4.5649,-4.5647,-4.5646,-4.5843,-4.585,-4.5856,0,0,0,0,0,0,0,0,0,0,0,0,0,-4.5065,-4.5071,-4.5411,-4.5413,-4.5416,-4.5608,-4.561,-4.5613,-4.5651,-4.5649,-4.5647,-4.5645,-4.5841,-4.5849,-4.5857,0,0,0,0,0,0,0,0,0,0,0,0,0,-4.5233,-4.5073,-4.541,-4.5458,-4.5464,-4.5607,-4.5611,-4.5614,-4.5651,-4.5649,-4.5646,-4.5644,-4.5838,-4.5848,-4.5858,-4.5967,0,0,-4.5889,-4.5893,0,0,0,0,0,0,0,0,-4.5224,-4.5246,-4.5448,-4.5455,-4.5462,-4.5602,-4.5561,-4.5732,-4.5652,-4.558,-4.5646,-4.5643,-4.5765,-4.5781,-4.5823,-4.5976,-4.5984,-4.589,-4.5896,-4.59,-4.5903,0,0,0,0,0,0,0,-4.5212,-4.5238,-4.5489,-4.5451,-4.546,-4.5468,-4.549,-4.5593,-4.5683,-4.5586,-4.5589,-4.5612,-4.5768,-4.5813,-4.5827,-4.5987,-4.5889,-4.5898,-4.5904,-4.5908,-4.6241,-4.6243,0,0,0,0,0,0,-4.5192,-4.5228,-4.5482,-4.5495,-4.5335,-4.5476,-4.55,-4.556,-4.5682,-4.5698,-4.5614,-4.5613,-4.5797,-4.5816,-4.5834,-4.5969,-4.59,-4.5909,-4.5915,-4.6238,-4.6241,-4.6244,0,0,0,0,0,0,-4.5185,-4.5215,-4.5475,-4.5362,-4.5396,-4.5485,-4.5551,-4.5565,-4.5609,-4.5703,-4.5719,-4.5643,-4.5796,-4.582,-4.5934,-4.5976,-4.5914,-4.5923,-4.6235,-4.6239,-4.6243,-4.6239,0,0,0,0,0,0,-4.5175,-4.5212,-4.5254,-4.5363,-4.5402,-4.5571,-4.5554,-4.557,-4.5627,-4.5628,-4.5735,-4.575,-4.5796,-4.5919,-4.5944,-4.5989,-4.5931,-4.6231,-4.6236,-4.6241,-4.6236,-4.6243,-4.6249,0,0,0,0,0,-4.5162,-4.5244,-4.5256,-4.5287,-4.5457,-4.5573,-4.5596,-4.5647,-4.5631,-4.5673,-4.5734,-4.5747,-4.5969,-4.593,-4.5959,-4.6008,-4.6228,-4.6235,-4.6241,-4.6233,-4.6242,-4.6249,0,0,0,0,0,0,-4.5136,-4.5259,-4.5274,-4.5394,-4.5473,-4.558,-4.5635,-4.5655,-4.5739,-4.5736,-4.5796,-4.582,-4.593,-4.5981,-4.5936,-4.612,-4.6098,-4.611,-4.6082,-4.6091,-4.6097,-4.608,-4.5939,0,0,0,0,0,-4.5144,-4.523,-4.5333,-4.5429,-4.5468,-4.5545,-4.5598,-4.5631,-4.5715,-4.5748,-4.5817,-4.5897,-4.5985,-4.6041,-4.6127,-4.6245,-4.6268,-4.6293,-4.63,-4.6305,-4.6313,-4.6379,-4.6391,-4.6265,-4.6265,-4.6265,0,0,-4.5161,-4.524,-4.5289,-4.5425,-4.5491,-4.5577,-4.5572,-4.5663,-4.5728,-4.5762,-4.5873,-4.5927,-4.602,-4.6136,-4.6191,-4.6182,-4.6354,-4.6313,-4.6316,-4.6322,-4.6387,-4.6399,-4.6409,-4.6269,-4.6268,-4.6268,0,0,-4.5236,-4.5305,-4.5392,-4.5459,-4.5559,-4.5611,-4.5632,-4.5737,-4.5774,-4.5888,-4.5915,-4.5993,-4.6143,-4.6208,-4.6261,-4.6366,-4.638,-4.6392,-4.6424,-4.6488,-4.6498,-4.6507,-4.6542,-4.6554,-4.6402,-4.6402,-4.6402,0,-4.5244,-4.5376,-4.5434,-4.5525,-4.5583,-4.5622,-4.571,-4.5772,-4.5894,-4.5933,-4.5923,-4.6113,-4.6179,-4.6311,-4.6337,-4.6379,-4.6404,-4.6378,-4.6492,-4.6502,-4.6511,-4.6545,-4.6559,-4.6402,-4.6402,-4.6402,-4.6402,0,-4.5381,-4.5472,-4.5531,-4.565,-4.5716,-4.5804,-4.5875,-4.5935,-4.5965,-4.6017,-4.6132,-4.6214,-4.6317,-4.6352,-4.638,-4.6488,-4.648,-4.648,-4.6458,-4.6523,-4.6556,-4.657,-4.6403,-4.6403,-4.6403,-4.6403,0,0,-4.5439,-4.5593,-4.5613,-4.5668,-4.5783,-4.5854,-4.5946,-4.6049,-4.6098,-4.6183,-4.626,-4.6389,-4.639,-4.6451,-4.6488,-4.6544,-4.662,-4.6538,-4.6541,-4.6548,-4.6743,-4.6739,-4.6754,-4.6633,-4.6636,-4.6638,-4.6734,0,-4.5526,-4.5691,-4.5747,-4.5883,-4.5968,-4.6007,-4.6087,-4.6166,-4.6219,-4.6298,-4.6356,-4.6445,-4.6442,-4.6478,-4.6537,-4.6598,-4.6659,-4.6593,-4.6703,-4.6706,-4.6674,-4.6772,-4.6768,-4.6855,-4.6748,-4.675,-4.6752,0,-4.5648,-4.5736,-4.5881,-4.5987,-4.6025,-4.6095,-4.6195,-4.6271,-4.6362,-4.6396,-4.6466,-4.6499,-4.6596,-4.6572,-4.6706,-4.6659,-4.6708,-4.6746,-4.6751,-4.676,-4.673,-4.678,-4.6884,-4.6896,-4.6773,-4.6772,-4.677,0,-4.5673,-4.5829,-4.5936,-4.5982,-4.6109,-4.6157,-4.6212,-4.6302,-4.6361,-4.6448,-4.6487,-4.6584,-4.6637,-4.6711,-4.677,-4.6748,-4.6898,-4.6879,-4.6928,-4.6926,-4.6954,-4.6951,-4.7064,-4.6991,-4.6991,-4.6991,-4.6991,0,-4.5762,-4.5848,-4.5949,-4.6014,-4.6112,-4.6177,-4.6272,-4.633,-4.641,-4.6486,-4.6528,-4.6598,-4.6674,-4.6755,-4.6802,-4.6905,-4.6929,-4.6958,-4.6969,-4.6953,-4.6949,-4.6983,-4.6977,-4.6995,-4.6994,-4.6993,-4.6992,0,-4.5805,-4.5876,-4.5995,-4.6107,-4.6137,-4.6204,-4.63,-4.6365,-4.6421,-4.6517,-4.6544,-4.6631,-4.6729,-4.6797,-4.6922,-4.6954,-4.7064,-4.7076,-4.7033,-4.7038,-4.7082,-4.7076,-4.7218,-4.7239,-4.7155,-4.7156,-4.7156,0,-4.5855,-4.5922,-4.6043,-4.6098,-4.6154,-4.6242,-4.6303,-4.6371,-4.6433,-4.6544,-4.6595,-4.6696,-4.678,-4.6934,-4.7008,-4.7104,-4.7117,-4.716,-4.7131,-4.7113,-4.7114,-4.7108,-4.7115,-4.7163,-4.7163,-4.7164,-4.7164,0,-4.5935,-4.5968,-4.6055,-4.6155,-4.6228,-4.631,-4.6392,-4.6434,-4.6517,-4.6584,-4.6686,-4.6751,-4.6881,-4.698,-4.7084,-4.714,-4.7165,-4.7174,-4.719,-4.7171,-4.7143,-4.7157,-4.7042,-4.7169,-4.7169,-4.7168,-4.7168,-4.7168,-4.5982,-4.6044,-4.6139,-4.6235,-4.6305,-4.6381,-4.6448,-4.6514,-4.66,-4.671,-4.6746,-4.6851,-4.6943,-4.7085,-4.7144,-4.7226,-4.7223,-4.7246,-4.7252,-4.7256,-4.7254,-4.7133,-4.7246,-4.7246,-4.7246,-4.7246,-4.7246,0,-4.6062,-4.6126,-4.6214,-4.6329,-4.6405,-4.6426,-4.6519,-4.658,-4.6672,-4.6756,-4.6839,-4.6956,-4.7054,-4.7137,-4.7238,-4.7288,-4.7303,-4.7312,-4.7307,-4.732,-4.7252,-4.7227,-4.7299,-4.7299,-4.7299,-4.7299,-4.7299,-4.7299,-4.6113,-4.6219,-4.6263,-4.6404,-4.6468,-4.6572,-4.6623,-4.6694,-4.6762,-4.689,-4.6972,-4.7027,-4.7111,-4.7219,-4.731,-4.7332,-4.7366,-4.7372,-4.7397,-4.7331,-4.7325,-4.7318,-4.7295,-4.738,-4.738,-4.7457,-4.7458,-4.7459]},{"header":{"parameterUnit":"m.s-1","parameterCategory":1,"la1":30.2991,"la2":30.254,"lo1":-89.0895,"lo2":-89.0444,"dy":0.0017,"dx":0.0017,"nx":28,"ny":28,"refTime":"2023-09-02T03:00:00:Z","depth":0,"parameterNumber":3,"parameterNumberName":"V-component_of_WINDS"},"data":[0,0,0,0,0,0,0,0,0,0,0,0,0,0,0,0,0,0,0,0,0,0,0,0,0,0,0,0,0,0,0,0,0,0,0,0,0,0,0,0,0,0,0,0,0,0,0,0,0,0,0,0,0,0,0,0,0,0,1.0271,1.0271,0,1.0272,1.0272,1.0272,1.0296,1.0297,1.0298,1.0298,1.0296,1.0296,1.0295,0,0,0,0,0,0,0,0,0,0,0,0,0,1.0287,1.0286,1.0271,1.0271,1.0271,1.0272,1.0272,1.0272,1.0296,1.0297,1.0298,1.0299,1.0297,1.0296,1.0295,0,0,0,0,0,0,0,0,0,0,0,0,0,1.0283,1.0286,1.0271,1.0283,1.0284,1.0272,1.0272,1.0272,1.0296,1.0297,1.0298,1.0299,1.0297,1.0296,1.0295,1.027,0,0,1.0292,1.0292,0,0,0,0,0,0,0,0,1.0283,1.0282,1.0281,1.0282,1.0283,1.0285,1.0277,1.0271,1.0296,1.0292,1.0298,1.0299,1.0292,1.0291,1.0289,1.027,1.027,1.0292,1.0291,1.0291,1.0291,0,0,0,0,0,0,0,1.0283,1.0282,1.0271,1.0281,1.0282,1.0288,1.0288,1.0276,1.0286,1.0292,1.0294,1.0294,1.0292,1.029,1.0289,1.027,1.0292,1.0291,1.0291,1.029,1.0231,1.023,0,0,0,0,0,0,1.0282,1.0283,1.0271,1.0271,1.0286,1.0287,1.0287,1.0284,1.0286,1.0288,1.0293,1.0295,1.0291,1.0291,1.0289,1.0261,1.0291,1.029,1.029,1.0232,1.0231,1.023,0,0,0,0,0,0,1.0283,1.0281,1.0271,1.0277,1.0277,1.0286,1.0281,1.0283,1.0281,1.0287,1.0289,1.0289,1.0292,1.0291,1.0275,1.0261,1.029,1.0289,1.0234,1.0232,1.0231,1.0203,0,0,0,0,0,0,1.0283,1.0281,1.0272,1.0277,1.0276,1.0257,1.028,1.0282,1.028,1.0282,1.0284,1.0285,1.0293,1.0277,1.0274,1.026,1.0288,1.0235,1.0233,1.0231,1.0205,1.02,1.0197,0,0,0,0,0,1.0283,1.0263,1.0271,1.027,1.0265,1.0256,1.0256,1.0266,1.0278,1.0269,1.0274,1.0285,1.0263,1.0275,1.0272,1.0258,1.0236,1.0233,1.0231,1.0207,1.0201,1.0197,0,0,0,0,0,0,1.0254,1.0264,1.0273,1.0254,1.0254,1.026,1.0249,1.026,1.0256,1.0258,1.027,1.027,1.0253,1.0254,1.0266,1.0234,1.0252,1.0249,1.0234,1.0229,1.0225,1.0224,1.0287,0,0,0,0,0,1.0246,1.0239,1.0247,1.023,1.023,1.0239,1.0236,1.0244,1.0244,1.0244,1.0247,1.0246,1.024,1.0234,1.0228,1.0206,1.0206,1.0195,1.0191,1.0187,1.0184,1.0172,1.0167,1.0223,1.0223,1.0223,0,0,1.0228,1.0232,1.0227,1.0224,1.0225,1.0217,1.0239,1.0229,1.0223,1.0242,1.0228,1.0231,1.023,1.0211,1.0203,1.0212,1.0169,1.0185,1.0182,1.018,1.017,1.0164,1.016,1.0221,1.0222,1.0222,0,0,1.0191,1.0194,1.0179,1.0181,1.0183,1.019,1.0187,1.0192,1.0195,1.0181,1.0196,1.0188,1.0176,1.0176,1.0174,1.0139,1.0149,1.0137,1.0114,1.0103,1.0098,1.0094,1.0081,1.0076,1.0134,1.0134,1.0134,0,1.0167,1.0156,1.017,1.016,1.0158,1.0178,1.0163,1.0163,1.0163,1.0161,1.0172,1.0158,1.0159,1.014,1.0132,1.013,1.0126,1.0135,1.0098,1.0094,1.0091,1.0078,1.0073,1.0132,1.0132,1.0133,1.0133,0,1.0128,1.012,1.0108,1.0109,1.0106,1.0093,1.0105,1.01,1.011,1.0115,1.0101,1.0104,1.0099,1.0096,1.0104,1.0079,1.0084,1.0096,1.0113,1.0084,1.0072,1.0067,1.013,1.013,1.0131,1.0131,0,0,1.0069,1.008,1.0075,1.0076,1.0081,1.0075,1.0064,1.0061,1.0056,1.0056,1.0046,1.0037,1.0049,1.0046,1.0055,1.0045,1.0017,1.0059,1.0059,1.005,0.9988,0.9978,0.9972,1.0025,1.0024,1.0023,0.9988,0,1.0032,1.0014,1.0027,1.0006,0.9999,1.0019,1.0009,1.0011,1.0017,1.0011,1.0017,1.001,1.0027,1.0026,1.0017,1.0022,1.0004,1.0025,1.0015,1.0014,1.0012,0.9966,0.9955,0.9921,0.9984,0.9983,0.9982,0,0.9986,0.9986,0.9964,0.9972,0.997,0.9961,0.9959,0.9954,0.9957,0.9962,0.9961,0.9972,0.9961,0.998,0.9965,0.9979,0.9976,0.9978,0.9977,0.9975,0.9995,0.9961,0.9911,0.9905,0.9976,0.9976,0.9977,0,0.9945,0.9939,0.9925,0.9926,0.9935,0.9928,0.9931,0.9935,0.9932,0.9931,0.993,0.9927,0.9925,0.9922,0.9933,0.9946,0.9916,0.9936,0.9919,0.9918,0.9909,0.9909,0.9856,0.9911,0.9911,0.9911,0.9911,0,0.9901,0.9887,0.9907,0.9898,0.9883,0.9899,0.9884,0.9889,0.9893,0.9885,0.9903,0.9895,0.991,0.9904,0.9913,0.9899,0.9898,0.9901,0.9903,0.9898,0.9898,0.9895,0.9896,0.9909,0.991,0.991,0.991,0,0.9851,0.9864,0.985,0.9861,0.9863,0.9851,0.986,0.9852,0.9861,0.9851,0.985,0.9862,0.9856,0.9867,0.9862,0.9868,0.9848,0.9854,0.9847,0.9848,0.983,0.9831,0.9771,0.9764,0.9824,0.9824,0.9823,0,0.9821,0.9811,0.9821,0.9818,0.9821,0.9815,0.9814,0.983,0.9827,0.983,0.9822,0.9818,0.9815,0.9805,0.9813,0.9809,0.9815,0.9794,0.9814,0.981,0.9813,0.9813,0.9811,0.9789,0.9788,0.9788,0.9787,0,0.9767,0.9774,0.9771,0.9771,0.9769,0.9769,0.9771,0.9767,0.9784,0.978,0.9775,0.9773,0.977,0.9765,0.9764,0.9767,0.9779,0.9782,0.9777,0.9771,0.9767,0.9768,0.9834,0.9782,0.9783,0.9783,0.9783,0.9784,0.9725,0.9717,0.9723,0.972,0.9723,0.9725,0.9718,0.9727,0.9723,0.9722,0.9732,0.9724,0.9728,0.9729,0.973,0.9724,0.9733,0.9727,0.9725,0.9723,0.972,0.977,0.9724,0.9725,0.9725,0.9725,0.9725,0,0.967,0.9676,0.9673,0.9675,0.9673,0.9688,0.9691,0.9687,0.9681,0.9684,0.9682,0.9676,0.9673,0.9681,0.9679,0.9672,0.9678,0.9671,0.9671,0.9671,0.9712,0.9716,0.9666,0.9666,0.9666,0.9666,0.9666,0.9666,0.9641,0.9629,0.9637,0.9627,0.9633,0.9627,0.9627,0.9628,0.9631,0.9625,0.9622,0.9629,0.9634,0.9632,0.9629,0.9632,0.963,0.962,0.9624,0.9662,0.9668,0.9673,0.9677,0.962,0.962,0.9583,0.9583,0.9583]}]]